Starlink 31293

operational
NORAD ID: 58952 Int'l Des: 2024-027 Owner: SPXS Country: US Constellation: starlink
LEOCIRCULAR

Starlink 31293について

説明を読み込み中...

リアルタイム位置

3D地球を読み込み中...

次回通過

高度履歴

Altitude vs Time

uPlot chart will show altitude changes over time

軌道要素

1 58952U 24027X 25354.23337838 .00002974 00000-0 11242-3 0 9995
2 58952 53.1615 318.6560 0001163 114.4510 245.6612 15.30217039105168
Epoch: Dec 20, 2025 • Age: 7 hours

現在のステータス

高度 474.9 km
速度 7.63 km/s
衛星直下点 17.18°N, 153.76°W
打ち上げ日 Feb 10, 2024
運用期間 1.8 years
タイプ internet

技術仕様

分類 Payload
質量 730.00 kg
乾燥質量 700.00 kg
総質量 730.00 kg
長さ 0.30 m
直径 4.10 m
スパン 29.00 m
形状 Box + pan
製造者 SPXS
バスタイプ Starlink V2M
フェーズステータス In Orbit
所有者/国 SPXS/US

大規模コンステレーション

Loading constellations...